User: anonymous   Login
Location: Unspecified
(0.0000°N, 0.0000°E)
Time: 18:42:24
(UTC+00:00)
Language:

Interbol-2 - Orbit

View from above orbital plane
View from above orbital plane
View from above satellite
View from above satellite

Ground track
Ground track

The orbit data is extracted from the following two-line orbital elements,

1 24292U 96050B   19077.36360399 -.00000039 +00000-0 +00000-0 0  9995
2 24292 063.4276 005.1075 5342188 236.9940 014.5617 04.14703675341404
Epoch (UTC): 18 March 2019 08:43:35
Eccentricity: 0.5342188
inclination: 63.4276°
perigee height: 1244 km
apogee height: 18729 km
right ascension of ascending node: 5.1075°
argument of perigee: 236.9940°
revolutions per day: 4.14703675
mean anomaly at epoch: 14.5617°
orbit number at epoch: 34140

The dashed part of the orbit path shows where the satellite is in the earth's shadow,  

DLR